星链-35135(STARLINK-35135)

导读

STARLINK-35135是美国太空探索技术公司SpaceX星链星座的一颗卫星,于2025年9月18日成功发射。星链项目旨在构建全球卫星互联网星座,为全球范围提供高速低延迟的宽带互联网服务,该卫星入轨后将进一步扩充星链星座的网络覆盖能力与服务容量。

Basic Information
目录编号:
65629
目录名称:
STARLINK-35135
国际标识:
2025-210H
轨道中心:
EARTH
卫星名称:
星链-35135
卫星全名:
星链-35135(STARLINK-35135)
卫星状态:
在轨 (已飞行268 天)
发射日期:
2025-09-18 UTC
国别 :
美国 (US)
星等 :
--
Orbit Information
数据来源 国际轨道数据 AOE轨道数据
星历时间 2026-06-13T05:23:01+0800
18小时前
查看轨道信息
2026-06-10T04:00:00+0800
3天前
查看轨道信息
半长轴 6840.771km 6840.826km
偏心率 0.0001176 0.0002101
轨道倾角 53.159° 53.160°
近地点辐角 83.759° 115.844°
升交点赤经 223.691° 237.991°
平近点角 276.355° 265.078°
近地点 461.829km 461.251km
远地点 463.439km 464.127km
周期 93.846分钟 93.847分钟
每日圈数 15.344236 15.34405
Detailed Information
固有亮度:
5
最大亮度:
2.5
卫星平台:
Starlink V1.0
覆盖范围:
全球
运营商:
太空探索技术公司
运营商所在国:
美国
制造商(研发单位):
太空探索技术公司
制造商所在国:
美国
使用方式:
暂无
Satellite Introduction
Starlink 计划是 SpaceX 推出的全球卫星互联网项目,通过发射低轨道卫星,为全球尤其是偏远地区提供高速、低延迟的互联网服务。自 2019 年起,Starlink 已部署数千颗卫星,旨在缩小全球数字鸿沟,推动互联网普及。该项目还为军事、航空等行业提供通信支持,带来广泛经济效益。
2D Orbit Map
3D Orbit Map
Orbit Altitude Analysis Chart
Orbit Inclination Analysis Chart
Orbit Comprehensive Analysis Chart
View Comprehensive Chart